Weather History for Arlington, WA

Change the Weather History Date:

Friday, July 5, 2013

  Actual Average Record
Temperature  
Mean Temperature 60 °F -  
Max Temperature 73 °F 64 °F 75 °F (2005)
Min Temperature 46 °F 51 °F 41 °F (2012)
Degree Days  
Heating Degree Days 6    
Growing Degree Days 10 (Base 50)    
Moisture  
Dew Point 51 °F    
Average Humidity 72    
Maximum Humidity 93    
Minimum Humidity 50    
Precipitation  
Precipitation 0.00 in - - ()
Sea Level Pressure  
Sea Level Pressure 30.02 in    
Wind  
Wind Speed 2 mph (WNW)    
Max Wind Speed 8 mph    
Max Gust Speed -    
Visibility 10 miles    
Events      
Averages and records for this station are not official NWS values.
T = Trace of Precipitation, MM = Missing Value Source: NWS Daily Summary

Daily Weather History Graph

Daily Weather History Graph

Search for Another Location

Airport:

Trip Planner

Search our weather history database for the weather conditions in past years. The results will help you decide how hot, cold, wet, or windy it might be!

Date:

Astronomy

Jul. 05, 2013 Rise Set
Actual Time 5:15 AM PDT 9:10 PM PDT
Civil Twilight 4:34 AM PDT 9:51 PM PDT
Nautical Twilight 3:38 AM PDT 10:47 PM PDT
Astronomical Twilight 2:08 AM PDT 12:15 AM PDT
Moon 3:23 AM PDT (7/5) 7:05 PM PDT (7/5)
Length of Visible Light 17h 16m
Length of Day
15h 55m
Waning Crescent, 6% of the Moon is Illuminated
Jul 5
Waning Crescent
Jul 8
New
Jul 15
First Quarter
Jul 22
Full
Jul 29
Last Quarter

Hourly Weather History & Observations

Time (PDT) Temp. Dew Point Humidity Pressure Visibility Wind Dir Wind Speed Gust Speed Precip Events Conditions
12:15 AM 55.4 °F 48.2 °F 77% 30.06 in 10.0 mi NNW 4.6 mph - N/A   Clear
12:35 AM 55.4 °F 48.2 °F 77% 30.06 in 10.0 mi NW 4.6 mph - N/A   Clear
12:55 AM 53.6 °F 48.2 °F 82% 30.06 in 10.0 mi NNW 4.6 mph - N/A   Partly Cloudy
1:15 AM 53.6 °F 48.2 °F 82% 30.06 in 10.0 mi NW 5.8 mph - N/A   Clear
1:35 AM 53.6 °F 48.2 °F 82% 30.06 in 10.0 mi North 3.5 mph - N/A   Partly Cloudy
1:55 AM 53.6 °F 48.2 °F 82% 30.06 in 10.0 mi Calm Calm - N/A   Partly Cloudy
2:15 AM 51.8 °F 46.4 °F 82% 30.06 in 9.0 mi NNE 5.8 mph - N/A   Clear
2:35 AM 51.8 °F 46.4 °F 82% 30.05 in 8.0 mi North 5.8 mph - N/A   Clear
2:55 AM 51.8 °F 46.4 °F 82% 30.05 in 9.0 mi NNE 3.5 mph - N/A   Clear
3:15 AM 51.8 °F 46.4 °F 82% 30.05 in 10.0 mi Calm Calm - N/A   Clear
3:35 AM 50.0 °F 46.4 °F 87% 30.05 in 10.0 mi Calm Calm - N/A   Clear
3:55 AM 48.2 °F 46.4 °F 93% 30.05 in 10.0 mi Calm Calm - N/A   Clear
4:15 AM 48.2 °F 44.6 °F 87% 30.05 in 9.0 mi Calm Calm - N/A   Clear
4:35 AM 48.2 °F 44.6 °F 87% 30.05 in 9.0 mi Calm Calm - N/A   Clear
4:55 AM 48.2 °F 44.6 °F 87% 30.04 in 9.0 mi Calm Calm - N/A   Clear
5:15 AM 48.2 °F 46.4 °F 93% 30.04 in 8.0 mi Calm Calm - N/A   Clear
5:35 AM 46.4 °F 42.8 °F 87% 30.05 in 7.0 mi Calm Calm - N/A   Clear
5:55 AM 46.4 °F 44.6 °F 93% 30.05 in 5.0 mi Calm Calm - N/A   Partly Cloudy
6:15 AM 48.2 °F 46.4 °F 93% 30.05 in 5.0 mi Calm Calm - N/A   Partly Cloudy
6:35 AM 48.2 °F 46.4 °F 93% 30.05 in 7.0 mi Calm Calm - N/A   Scattered Clouds
6:55 AM 51.8 °F 48.2 °F 88% 30.06 in 8.0 mi Calm Calm - N/A   Overcast
7:15 AM 53.6 °F 48.2 °F 82% 30.05 in 9.0 mi Calm Calm - N/A   Overcast
7:35 AM 53.6 °F 50.0 °F 88% 30.06 in 10.0 mi Calm Calm - N/A   Overcast
7:55 AM 57.2 °F 51.8 °F 82% 30.06 in 10.0 mi Calm Calm - N/A   Overcast
8:15 AM 57.2 °F 51.8 °F 82% 30.06 in 10.0 mi Calm Calm - N/A   Overcast
8:35 AM 57.2 °F 51.8 °F 82% 30.06 in 10.0 mi Calm Calm - N/A   Overcast
8:55 AM 57.2 °F 51.8 °F 82% 30.06 in 10.0 mi Calm Calm - N/A   Overcast
9:15 AM 57.2 °F 51.8 °F 82% 30.06 in 10.0 mi Calm Calm - N/A   Overcast
9:35 AM 59.0 °F 51.8 °F 77% 30.06 in 10.0 mi Calm Calm - N/A   Overcast
9:55 AM 60.8 °F 51.8 °F 72% 30.05 in 10.0 mi South 3.5 mph - N/A   Overcast
10:15 AM 60.8 °F 53.6 °F 77% 30.05 in 10.0 mi SSE 4.6 mph - N/A   Overcast
10:35 AM 60.8 °F 51.8 °F 72% 30.05 in 10.0 mi Calm Calm - N/A   Overcast
10:55 AM 60.8 °F 51.8 °F 72% 30.05 in 10.0 mi Calm Calm - N/A   Overcast
11:15 AM 60.8 °F 51.8 °F 72% 30.05 in 10.0 mi Calm Calm - N/A   Overcast
11:35 AM 60.8 °F 53.6 °F 77% 30.05 in 10.0 mi Calm Calm - N/A   Overcast
11:55 AM 62.6 °F 53.6 °F 72% 30.04 in 10.0 mi Calm Calm - N/A   Overcast
12:15 PM 66.2 °F 55.4 °F 68% 30.04 in 10.0 mi Calm Calm - N/A   Mostly Cloudy
12:35 PM 64.4 °F 53.6 °F 68% 30.04 in 10.0 mi South 5.8 mph - N/A   Overcast
12:55 PM 66.2 °F 53.6 °F 64% 30.04 in 10.0 mi Calm Calm - N/A   Overcast
1:15 PM 66.2 °F 53.6 °F 64% 30.03 in 10.0 mi North 3.5 mph - N/A   Overcast
1:35 PM 66.2 °F 53.6 °F 64% 30.03 in 10.0 mi Calm Calm - N/A   Overcast
1:55 PM 66.2 °F 51.8 °F 60% 30.03 in 10.0 mi Calm Calm - N/A   Overcast
2:15 PM 66.2 °F 53.6 °F 64% 30.03 in 10.0 mi Calm Calm - N/A   Overcast
2:35 PM 68.0 °F 53.6 °F 60% 30.02 in 10.0 mi Calm Calm - N/A   Overcast
2:55 PM 69.8 °F 53.6 °F 56% 30.02 in 10.0 mi ESE 4.6 mph - N/A   Scattered Clouds
3:15 PM 71.6 °F 53.6 °F 53% 30.01 in 10.0 mi SW 5.8 mph - N/A   Mostly Cloudy
3:35 PM 69.8 °F 53.6 °F 56% 30.01 in 10.0 mi West 4.6 mph - N/A   Mostly Cloudy
3:55 PM 69.8 °F 51.8 °F 53% 30.00 in 10.0 mi Calm Calm - N/A   Mostly Cloudy
4:15 PM 69.8 °F 53.6 °F 56% 30.00 in 10.0 mi Calm Calm - N/A   Overcast
4:35 PM 69.8 °F 53.6 °F 56% 29.99 in 10.0 mi SSE 5.8 mph - N/A   Overcast
4:55 PM 71.6 °F 53.6 °F 53% 29.99 in 10.0 mi Calm Calm - N/A   Mostly Cloudy
5:15 PM 71.6 °F 53.6 °F 53% 29.98 in 10.0 mi SE 6.9 mph - N/A   Mostly Cloudy
5:35 PM 73.4 °F 53.6 °F 50% 29.98 in 10.0 mi SSW 4.6 mph - N/A   Overcast
5:55 PM 71.6 °F 53.6 °F 53% 29.98 in 10.0 mi South 4.6 mph - N/A   Overcast
6:15 PM 71.6 °F 53.6 °F 53% 29.97 in 10.0 mi WSW 8.1 mph - N/A   Scattered Clouds
6:35 PM 73.4 °F 53.6 °F 50% 29.97 in 10.0 mi WSW 4.6 mph - N/A   Scattered Clouds
6:55 PM 71.6 °F 53.6 °F 53% 29.97 in 10.0 mi WSW 3.5 mph - N/A   Partly Cloudy
7:15 PM 71.6 °F 51.8 °F 50% 29.97 in 10.0 mi WSW 4.6 mph - N/A   Clear
7:35 PM 71.6 °F 51.8 °F 50% 29.97 in 10.0 mi Calm Calm - N/A   Clear
7:55 PM 71.6 °F 51.8 °F 50% 29.97 in 10.0 mi NW 3.5 mph - N/A   Clear
8:15 PM 69.8 °F 51.8 °F 53% 29.97 in 10.0 mi NW 4.6 mph - N/A   Clear
8:35 PM 66.2 °F 51.8 °F 60% 29.97 in 10.0 mi NW 4.6 mph - N/A   Clear
8:55 PM 66.2 °F 51.8 °F 60% 29.97 in 10.0 mi Calm Calm - N/A   Clear
9:15 PM 64.4 °F 51.8 °F 64% 29.97 in 10.0 mi Calm Calm - N/A   Clear
9:35 PM 62.6 °F 51.8 °F 68% 29.98 in 10.0 mi Calm Calm - N/A   Clear
9:55 PM 60.8 °F 51.8 °F 72% 29.98 in 10.0 mi Calm Calm - N/A   Clear
10:15 PM 57.2 °F 50.0 °F 77% 29.98 in 10.0 mi Calm Calm - N/A   Clear
10:35 PM 60.8 °F 51.8 °F 72% 29.98 in 10.0 mi North 3.5 mph - N/A   Clear
10:55 PM 60.8 °F 51.8 °F 72% 29.99 in 10.0 mi Calm Calm - N/A   Clear
11:15 PM 59.0 °F 51.8 °F 77% 29.99 in 10.0 mi NW 3.5 mph - N/A   Clear
11:35 PM 57.2 °F 51.8 °F 82% 29.99 in 10.0 mi Calm Calm - N/A   Clear
11:55 PM 57.2 °F 51.8 °F 82% 29.99 in 10.0 mi Calm Calm - N/A   Clear